Regional Weather Roundup
Issued by NWS

Home | Current Version | Previous Version | Graphics & Text | Print | Product List | Glossary On
Versions: 1 2 3 4 5 6 7 8 9 10 11 12 13 14 15 16 17 18 19 20 21 22 23 24 25 26 27 28 29 30 31 32 33 34 35 36 37 38 39 40 41 42 43 44 45 46 47 48 49 50
000
ASUS43 KDTX 300701
RWRMI
MICHIGAN HOURLY REGIONAL WEATHER ROUNDUP
NATIONAL WEATHER SERVICE DETROIT/PONTIAC MI
300 AM EDT SAT APR 30 2016

NOTE: "FAIR" INDICATES FEW OR NO CLOUDS BELOW 12,000 FEET WITH NO
SIGNIFICANT WEATHER AND/OR OBSTRUCTION TO VISIBILITY.

MIZ047>049-052>055-059>063-066>070-074>076-081>083-300800-
SOUTHEAST LOWER MICHIGAN

CITY           SKY/WX    TMP DP  RH WIND       PRES   REMARKS
ADRIAN         CLOUDY    47  40  76 E3        30.15S
ALMA           PTCLDY    35  34  99 CALM      30.16S
ANN ARBOR      CLOUDY    46  37  71 E3        30.16R
BAD AXE        CLEAR     31  28  88 CALM      30.17F
CARO           CLEAR     32  30  92 CALM      30.16F
DETROIT CITY   CLOUDY    44  33  65 CALM      30.16S
DETROIT        MOCLDY    46  33  60 CALM      30.17R
FLINT          CLEAR     41  33  73 CALM      30.16F
GROSSE ILE     MOCLDY    43  39  87 CALM      30.15R
HILLSDALE      CLOUDY    45  39  79 SE5       30.13S
HOWELL         CLEAR     41  35  80 CALM      30.15S

CITY           SKY/WX    TMP DP  RH WIND       PRES   REMARKS
JACKSON        CLOUDY    47  38  71 SE5       30.14R
LAMBERTVILLE   CLOUDY    46  40  78 CALM      30.15S
LANSING        CLEAR     41  36  82 CALM      30.16S
LAPEER         CLOUDY    35  34  96 CALM      30.16F
MASON          PTCLDY    41  38  87 CALM      30.15R
MONROE         CLOUDY    42  40  93 CALM      30.16R
PONTIAC        CLOUDY    45  33  63 CALM      30.14F
PORT HOPE        N/A     34  30  85 CALM      30.16F
PORT HURON     CLOUDY    43  30  61 NE3       30.17S
TRI CITIES     CLEAR     38  33  82 E5        30.16F WCI  34
MIDLAND        FAIR      32  32  99 CALM      30.16F
TROY           CLOUDY    46  32  58 CALM      30.17S
SAGINAW HB     CLEAR     36  32  87 CALM      30.16S
$$
MIZ043>046-050>051-056>058-064>065-071>073-077>080-300800-
SOUTHWEST LOWER MICHIGAN

CITY           SKY/WX    TMP DP  RH WIND       PRES   REMARKS
BATTLE CREEK   CLOUDY    48  40  73 E5        30.13S
BENTON HARBOR  CLOUDY    48  41  76 E6        30.10F
BIG RAPIDS     CLEAR     35  32  88 CALM      30.15S
COLDWATER      CLOUDY    46  38  73 E7        30.12F
FREMONT        FAIR      40  40 100 CALM      30.14S
HOLLAND        CLEAR     42  38  85 E6        30.14R
GRAND RAPIDS   CLEAR     41  37  86 E6        30.15R
IONIA          FAIR      40  36  86 E3        30.15R
KALAMAZOO      CLOUDY    49  40  71 E3        30.13S
LUDINGTON      CLEAR     33  33 100 CALM      30.15S
MARSHALL       CLOUDY    47  39  73 CALM      30.13S
MOUNT PLEASANT CLEAR     36  34  95 CALM      30.16S
MUSKEGON       CLEAR     38  33  82 CALM      30.15R
$$
MIZ016>042-300800-
NORTHERN LOWER MICHIGAN

CITY           SKY/WX    TMP DP  RH WIND       PRES   REMARKS
ALPENA         CLEAR     30  27  88 CALM      30.20R
BEAVER ISLAND  CLEAR     40  31  69 CALM      30.19R
BELLAIRE       CLEAR     36  32  87 CALM      30.18S
CADILLAC       CLEAR     32  30  93 CALM      30.14F
CHARLEVOIX     CLEAR     43  29  59 SE6       30.20S
FRANKFORT      CLEAR     38  33  82 CALM      30.15F
GAYLORD        CLEAR     38  29  70 CALM      30.17S
HARBOR SPRINGS CLEAR     37  29  73 NE3       30.18S
HOUGHTON LAKE  CLEAR     35  33  92 CALM      30.17S
MANISTEE       PTCLDY    36  30  80 E6        30.15F WCI  31
OSCODA         CLEAR     29  25  82 CALM      30.19R
PELLSTON       CLEAR     30  27  88 CALM      30.19R
ROGERS CITY    CLEAR     34  32  91 SW3       30.20R
TRAVERSE CITY  CLEAR     36  32  85 CALM      30.15F
$$
MIZ007>008-015-300800-
EASTERN UPPER MICHIGAN

CITY           SKY/WX    TMP DP  RH WIND       PRES   REMARKS
KINROSS          N/A     36  30  80 CALM      30.19R
MACKINAC ISLAN CLEAR     38  28  66 NE5       30.18S WCI  34
NEWBERRY       CLEAR     32  29  89 CALM      30.18R
S. S. MARIE    CLEAR     35  30  82 CALM      30.18S
MUNISING         N/A     31  29  92 S3        30.21R
$$
MIZ004>006-011>014-085-300800-
CENTRAL UPPER MICHIGAN

CITY           SKY/WX    TMP DP  RH WIND       PRES   REMARKS
MANISTIQUE     MOCLDY    34  31  86 CALM      30.19R
ESCANABA       CLOUDY    39  28  65 CALM      30.20R
MENOMINEE      PTCLDY    43  30  61 NE7       30.17F
SAWYER-GWINN   CLEAR     30  27  88 N3        30.18S
$$
MIZ001>003-009>011-084-300800-
WESTERN UPPER MICHIGAN

CITY           SKY/WX    TMP DP  RH WIND       PRES   REMARKS
IRON MOUNTAIN  CLEAR     38  27  64 CALM      30.18R
HOUGHTON       MOCLDY    39  30  70 NE7       30.21S WCI  34
COPPER HARBOR    N/A     39  34  82 VRB5      30.23S
IRONWOOD         N/A     34  32  93 CALM      30.20R
$$

ABBREVIATIONS USED IN REMARKS
   TC - TEMPERATURE IN CELSIUS
  WCI - WIND CHILL INDEX
   HX - HEAT INDEX
  VSB - VISIBILITY





USA.gov is the U.S. government's official web portal to all federal, state and local government web resources and services.